Location: Potawatomi Wildlife Park
(41.2308°N, 86.1050°W)
Time: 17:18:48
(UTC-05:00)

Daily predictions for brighter satellites

Satellite Brightness Start Highest point End
(mag) Time Altitude Azimuth Time Altitude Azimuth Time Altitude Azimuth
ATLAS 2AS CENTAUR R/B 3.6 17:35:30 10° NW 17:43:27 65° WSW 17:50:50 10° SSE
CSL-04 Debris 4.4 17:38:18 10° SSE 17:43:41 81° WSW 17:49:07 10° NNW
Cosmos 375 4.3 17:40:56 10° NW 17:45:24 81° NE 17:49:14 10° SE
Cosmos 1484 Rocket 4.3 17:43:47 10° E 17:45:53 15° ENE 17:47:59 10° NNE
Cosmos 494 Rocket 4.4 17:42:40 10° NNW 17:47:56 74° WSW 17:53:10 10° S
Cosmos 1844 Rocket 4.0 17:42:59 10° SW 17:48:09 38° WNW 17:53:24 10° N
SMAP 3.3 17:47:23 10° SE 17:51:52 49° ENE 17:56:21 10° N
Ariane Rocket 4.4 17:48:33 10° S 17:53:22 44° W 17:58:13 10° NNW
CORIOLIS 4.3 17:50:45 10° SE 17:55:57 51° ENE 18:01:10 10° N
Cosmos 1975 2.8 17:52:41 10° N 17:56:44 65° E 18:00:43 10° SSE
Cosmos 1812 3.3 17:59:53 10° SSW 18:03:41 61° W 18:07:32 10° N
Okean 1-7 Rocket 4.3 17:59:41 10° SSE 18:03:44 33° E 18:07:45 10° NNE
Tiangong 1 1.0 18:03:54 10° W 18:06:56 76° NNW 18:09:19 15° ENE
CZ-4 R/B 1.5 18:03:35 10° SSE 18:07:45 86° WSW 18:11:53 10° NNW
MOS 1 4.3 18:02:42 10° SSE 18:08:21 80° ENE 18:14:01 10° NNW
ISS -1.0 18:07:05 10° NW 18:08:54 14° N 18:10:44 10° NNE
SPOT 3 Rocket 3.5 18:07:02 10° SSE 18:12:13 82° ENE 18:17:24 10° NNW
COSMOS 2487 2.6 18:08:47 10° NNW 18:12:24 78° WSW 18:15:58 10° SSE
MSX 3.9 18:07:07 10° SSE 18:12:41 57° ENE 18:18:19 10° N
Cosmos 2366 rocket 4.4 18:07:22 10° NNW 18:13:40 68° W 18:19:52 10° S
Meteor 2-21 4.4 18:10:43 10° N 18:16:53 72° E 18:22:59 10° SSE
AQUARIUS 4.2 18:13:09 10° SSE 18:17:39 88° WSW 18:22:11 10° NNW
USA 116 4.5 18:12:18 10° NNE 18:17:39 84° WNW 18:22:38 10° SSW
NOSS 2-1 (D) 3.2 18:22:13 10° SSW 18:26:02 84° SE 18:29:25 16° NE
Cosmos 2297 3.8 18:20:37 10° SSW 18:26:15 83° WNW 18:31:55 10° NNE
NOSS 2-1 (C) 3.3 18:22:53 10° SSW 18:26:43 83° SE 18:30:04 16° NE
COSMO-SKYMED 1 2.8 18:28:05 10° NNE 18:32:17 46° E 18:36:26 10° S
Meteor 2-14 Rocket 4.4 18:27:48 10° N 18:33:59 73° E 18:40:05 10° SSE
Cosmos 1190 Rocket 4.5 18:29:21 10° N 18:34:12 36° ENE 18:38:58 10° SE
CZ-3A R/B 4.4 18:28:25 10° W 18:34:16 49° N 18:55:09 18° ENE
Cosmos 2239 Rocket 4.5 18:28:11 10° N 18:34:17 57° E 18:40:18 10° SSE
Cosmos 2278 Rocket 3.6 18:29:38 10° WSW 18:34:47 35° WNW 18:39:58 10° N
Cosmos 921 Rocket 3.1 18:32:36 10° SSW 18:36:52 77° WNW 18:41:14 10° NNE
NOSS 7 (D) 4.4 18:33:54 10° SSW 18:37:22 59° ESE 18:38:44 31° NE
Cosmos 1666 3.1 18:34:54 10° N 18:38:34 40° ENE 18:42:14 10° SSE
Cosmos 1025 Rocket 3.2 18:34:21 10° S 18:38:35 51° E 18:42:27 12° NNE
Abrixas 3.6 18:35:49 10° WNW 18:38:39 41° SW 18:41:15 11° SE
IDEFIX/ARIANE 42P 3.4 18:38:38 10° S 18:43:40 52° W 18:48:44 10° NNW
Cosmos 1346 Rocket 4.1 18:40:53 10° SSW 18:44:33 39° WNW 18:48:13 10° N
Thor Agena Rocket 4.3 18:39:48 10° N 18:44:53 53° WNW 18:49:59 10° SW
BREEZE-M DEB (TANK) 3.7 18:43:25 10° NW 18:45:01 17° N 18:45:01 17° N
NOSS 2-1 (E) 3.6 18:41:35 10° SW 18:45:26 70° NW 18:48:16 21° NNE
Cosmos 1821 Rocket 3.8 18:40:50 10° N 18:46:55 69° E 18:52:59 10° SSE
Cosmos 1833 Rocket 2.9 18:45:17 10° NNW 18:50:55 73° WSW 18:56:30 10° SSE
YAOGAN 1 4.2 18:51:47 10° SSW 18:55:46 36° W 18:59:47 10° NNW
Cosmos 1605 Rocket 4.2 18:51:37 10° N 18:57:40 47° ENE 19:03:34 10° SSE
CZ-3B DEB 3.6 18:53:47 10° W 18:58:13 38° NNW 19:04:32 19° NE
DMSP B5D1-3 4.4 18:54:32 13° NNE 18:59:03 67° ESE 19:04:08 10° S
Cosmos 2082 Rocket 3.1 18:54:48 10° NNW 19:00:17 52° WSW 19:05:46 10° S
USA 234 3.5 18:56:14 20° NE 19:00:51 63° NW 19:07:17 10° WSW
Cosmos 1743 3.7 18:58:55 10° NNW 19:02:40 48° W 19:06:22 10° SSW
CZ-2C R/B 4.4 19:01:05 10° SSW 19:05:31 31° W 19:10:04 10° NNW
Meteor 1-28 Rocket 3.1 19:06:27 62° ENE 19:06:51 68° ESE 19:10:36 10° S
Intercosmos 25 4.4 19:03:53 10° NNW 19:06:52 39° W 19:10:14 10° SSW
BREEZE M DEB (TANK) 2.5 19:05:39 10° WSW 19:12:46 63° NNW 19:13:17 54° NNE
NOSS 3-4 (A) 3.8 19:12:39 10° NW 19:19:43 83° WSW 19:27:13 10° SSE
NOSS 3-4 (C) 3.8 19:12:45 10° NW 19:19:49 84° WSW 19:27:19 10° SSE
Cosmos 1484 Rocket 4.2 19:16:33 10° SSW 19:20:02 37° W 19:23:31 10° NNW
SKYMED 2 4.4 19:16:39 13° N 19:20:20 50° WNW 19:24:31 10° SSW
Delta 2 Rocket 4.4 19:18:11 10° WSW 19:21:32 32° S 19:21:53 32° S
Cosmos 407 Rocket 3.3 19:19:20 10° NNW 19:24:30 85° ENE 19:29:41 10° SSE
Cosmos 2056 Rocket 3.9 19:21:21 10° SSW 19:26:39 62° WNW 19:29:42 25° N
BREEZE M DEB (TANK) 3.6 19:25:01 10° NW 19:29:08 77° NNE 19:34:19 31° ESE
Okean 2 3.8 19:28:29 10° SSW 19:32:36 61° W 19:33:19 51° NW
Cosmos 1892 Rocket 3.8 19:30:55 10° SSW 19:35:13 65° W 19:35:54 56° NNW
Cosmos 676 Rocket 3.9 19:30:47 10° NNW 19:35:31 69° NNE 19:35:31 69° NNE
Cosmos 1727 Rocket 3.8 19:29:52 10° S 19:36:03 76° E 19:38:31 39° NNE
Cosmos 2369 Rocket 2.5 19:32:14 10° S 19:36:49 51° SE 19:36:49 51° SE
NOAA 12 4.4 19:35:29 10° S 19:40:43 67° WSW 19:45:58 10° NNW
Cosmos 1726 Rocket 4.3 19:37:11 10° NNW 19:41:32 52° W 19:45:50 10° S
Tiangong 1 3.9 19:40:13 10° WNW 19:41:00 16° WNW 19:41:00 16° WNW
FALCON 9 R/B 3.4 19:26:08 10° W 19:46:46 59° SSW 19:49:07 43° SE
ATLAS 3B CENTAUR R/B 4.4 19:39:10 10° W 19:56:03 37° SSW 20:00:27 23° SSE
